P/2011 U1 ( PanSTARRS ) 2003

Japanese version
Home page
Updated on January 22, 2012

---------------------------------------------------------------------

* Profile

* Orbital Elements

Epoch 2003 Dec. 27.0 TT = JDT 2453000.5
T 2003 Dec. 21.15617 TT                                 MPC
q   2.5482904            (2000.0)            P               Q
n   0.11449524     Peri.  348.53103     -0.58764166     -0.78785503
a   4.2002754      Node   137.10168     +0.76212247     -0.61545480
e   0.3933040      Incl.   15.70783     +0.27174735     +0.02235713
P   8.61
From 52 observations 2004 Feb. 14-2011 Dec. 29, mean residual 0".3.

* Magnitudes Graph

        m1 = 14.5 + 5 log d + 10.0 log r

---------------------------------------------------------------------

The orbital elements are published on M.P.E.C. 2011-Y66.
The magnitudes graphs are made with Comet for Windows.

---------------------------------------------------------------------

Copyright(C) Seiichi Yoshida (comet@aerith.net). All rights reserved.